Le nostre stazioni meteo in Italia

Pubblicità
Il mio iltempo24.it
Forli, Italia (16147): Temperatura & dewpoint: 20.08.2019 12:00:00 - 26.08.2019 12:00:00 (CEST)Forli, Italia (16147): velocità del vento: 20.08.2019 12:00:00 - 26.08.2019 12:00:00 (CEST)Forli, Italia (16147): direzione del vento: 20.08.2019 12:00:00 - 26.08.2019 12:00:00 (CEST)Forli, Italia (16147): reduced air pressure: 20.08.2019 12:00:00 - 26.08.2019 12:00:00 (CEST)Forli, Italia (16147): visibility: 20.08.2019 12:00:00 - 26.08.2019 12:00:00 (CEST)Forli, Italia (16147): precipitazioni: 20.08.2019 12:00:00 - 26.08.2019 12:00:00 (CEST)
Data & Tempo tt [°C] td [°C] ff [km/h] ff [kn] dd ppp [hPa] vv [km] rr [mm]
26.08.2019 12:00:00 28,0 20,0 13 7 NNO - 10 -
26.08.2019 11:00:00 27,0 20,0 9 5 NO - 10 -
26.08.2019 10:00:00 26,0 19,0 15 8 NO - 10 -
26.08.2019 09:00:00 - - - - - - - -
26.08.2019 08:00:00 - - - - - - - -
26.08.2019 07:00:00 - - - - - - - -
26.08.2019 06:00:00 - - - - - - - -
26.08.2019 05:00:00 - - - - - - - -
26.08.2019 04:00:00 21,5 17,5 4 2 SO 1014,6 - 0,0
26.08.2019 03:00:00 21,7 17,7 4 2 SO 1014,6 - 0,0
26.08.2019 02:00:00 22,1 18,1 4 2 SO 1014,8 - 0,0
26.08.2019 01:00:00 22,4 18,2 2 1 OSO 1014,9 - 0,0
26.08.2019 00:00:00 23,2 18,5 1 1 O 1015,0 - 0,0
25.08.2019 23:00:00 - - - - - - - -
25.08.2019 22:00:00 - - - - - - - -
25.08.2019 21:00:00 - - - - - - - -
25.08.2019 20:00:00 - - - - - - - -
25.08.2019 19:00:00 - - - - - - - -
25.08.2019 18:00:00 - - - - - - - -
25.08.2019 17:00:00 29,4 17,6 16 8 ENE 1013,6 - 0,0
25.08.2019 16:00:00 30,2 15,9 8 4 N 1013,7 - 0,0
25.08.2019 15:00:00 29,4 16,9 - - - 1014,0 - 0,0
25.08.2019 14:00:00 28,4 17,0 7 4 ONO 1014,6 - 0,0
25.08.2019 13:00:00 27,3 16,9 9 5 NNO 1015,1 - 0,0
25.08.2019 12:00:00 26,5 16,7 7 4 NO 1015,5 - 0,0
25.08.2019 11:00:00 25,6 16,7 5 3 OSO 1016,1 - 0,0
25.08.2019 10:00:00 24,1 16,6 9 5 NO 1016,1 - 0,0
25.08.2019 09:00:00 23,4 16,4 9 5 ONO 1015,8 - 0,0
25.08.2019 08:00:00 22,4 17,1 2 1 OSO 1015,4 - 0,0
25.08.2019 07:00:00 21,7 16,9 3 1 OSO 1015,2 - 0,0
25.08.2019 06:00:00 21,6 17,0 2 1 OSO 1015,2 - 0,0
25.08.2019 05:00:00 22,0 16,9 5 3 O 1014,9 - 0,0
25.08.2019 04:00:00 22,3 16,8 3 2 O 1014,9 - 0,0
25.08.2019 03:00:00 22,6 16,8 3 2 O 1015,1 - 0,0
25.08.2019 02:00:00 22,4 16,7 6 3 ONO 1015,3 - 0,0
25.08.2019 01:00:00 22,7 16,9 - - - 1015,3 - 0,0
25.08.2019 00:00:00 22,7 17,6 3 2 SO 1015,4 - 0,0
24.08.2019 23:00:00 - - - - - - - -
24.08.2019 22:00:00 - - - - - - - -
24.08.2019 21:00:00 - - - - - - - -
24.08.2019 20:00:00 - - - - - - - -
24.08.2019 19:00:00 - - - - - - - -
24.08.2019 18:00:00 - - - - - - - -
24.08.2019 17:00:00 29,9 16,0 10 5 N 1014,3 - 0,0
24.08.2019 16:00:00 30,0 16,4 8 5 ONO 1014,3 - 0,0
24.08.2019 15:00:00 29,3 17,2 9 5 NO 1014,8 - 0,0
24.08.2019 14:00:00 28,2 17,7 11 6 NO 1015,6 - 0,0
24.08.2019 13:00:00 28,2 17,7 10 5 NO 1016,1 - 0,0
24.08.2019 12:00:00 27,1 18,1 13 7 NO 1016,7 - 0,0
24.08.2019 11:00:00 25,6 18,5 9 5 NO 1017,0 - 0,0
24.08.2019 10:00:00 25,2 17,9 11 6 NO 1017,1 - 0,0
24.08.2019 09:00:00 24,7 18,6 3 1 SO 1017,0 - 0,0
24.08.2019 08:00:00 22,6 18,2 4 2 OSO 1017,0 - 0,0
24.08.2019 07:00:00 21,4 17,8 8 4 OSO 1016,8 - 0,0
24.08.2019 06:00:00 21,3 17,9 5 3 OSO 1016,7 - 0,0
24.08.2019 05:00:00 21,4 18,0 5 3 OSO 1016,9 - 0,0
24.08.2019 04:00:00 21,6 18,2 5 3 OSO 1017,1 - 0,0
24.08.2019 03:00:00 21,6 18,4 6 3 OSO 1017,1 - 0,0
24.08.2019 02:00:00 21,9 18,7 4 2 OSO 1017,2 - 0,0
24.08.2019 01:00:00 22,0 18,6 4 2 OSO 1017,4 - 0,0
24.08.2019 00:00:00 22,4 18,4 3 2 OSO 1017,7 - 0,0
23.08.2019 23:00:00 - - - - - - - -
23.08.2019 22:00:00 - - - - - - - -
23.08.2019 21:00:00 - - - - - - - -
23.08.2019 20:00:00 - - - - - - - -
23.08.2019 19:00:00 - - - - - - - -
23.08.2019 18:00:00 - - - - - - - -
23.08.2019 17:00:00 26,2 17,8 9 5 NNE 1017,4 - 0,0
23.08.2019 16:00:00 26,4 16,0 9 5 NNE 1016,9 - 0,0
23.08.2019 15:00:00 26,9 18,2 6 4 NNE 1017,7 - 0,0
23.08.2019 14:00:00 26,2 18,6 10 5 ENE 1018,5 - 0,0
23.08.2019 13:00:00 25,9 18,6 4 2 NNO 1018,7 - 0,0
23.08.2019 12:00:00 25,0 18,7 8 4 ONO 1019,0 - 0,0
23.08.2019 11:00:00 23,9 18,5 16 9 NO 1018,8 - 0,0
23.08.2019 10:00:00 22,8 18,3 15 8 NO 1018,8 - 0,0
23.08.2019 09:00:00 22,3 18,3 2 1 O 1019,2 - 0,0
23.08.2019 08:00:00 22,1 17,9 0 0 N 1019,2 - 0,0
23.08.2019 07:00:00 21,5 18,1 6 3 O 1018,2 - 0,0
23.08.2019 06:00:00 21,2 19,1 5 3 OSO 1018,2 - 0,0
23.08.2019 05:00:00 22,0 19,4 1 1 NO 1017,7 - 0,0
23.08.2019 04:00:00 22,1 19,6 3 2 OSO 1017,7 - 0,0
23.08.2019 03:00:00 22,1 19,6 3 2 S 1017,7 - 0,0
23.08.2019 02:00:00 21,9 19,6 2 1 SO 1017,5 - 0,0
23.08.2019 01:00:00 22,4 19,8 2 1 OSO 1017,9 - 0,0
23.08.2019 00:00:00 22,4 19,9 1 1 S 1018,0 - 0,0
22.08.2019 23:00:00 - - - - - - - -
22.08.2019 22:00:00 - - - - - - - -
22.08.2019 21:00:00 - - - - - - - -
22.08.2019 20:00:00 - - - - - - - -
22.08.2019 19:00:00 - - - - - - - -
22.08.2019 18:00:00 - - - - - - - -
22.08.2019 17:00:00 26,2 18,8 10 5 NNE 1016,9 - 0,0
22.08.2019 16:00:00 26,9 19,3 10 6 NNO 1017,0 - 0,0
22.08.2019 15:00:00 27,3 18,3 10 6 NNO 1017,3 - 0,0
22.08.2019 14:00:00 27,3 18,6 8 4 N 1017,8 - 0,0
22.08.2019 13:00:00 26,7 19,1 9 5 N 1018,0 - 0,0
22.08.2019 12:00:00 26,4 18,5 5 3 NNO 1018,3 - 0,0
22.08.2019 11:00:00 25,6 19,3 6 4 O 1018,6 - 0,0
22.08.2019 10:00:00 23,8 19,5 8 4 ONO 1018,5 - 0,0
22.08.2019 09:00:00 21,2 19,7 9 5 ONO 1018,1 - 5,6
22.08.2019 08:00:00 22,1 19,3 10 6 ONO 1017,8 - 0,2
22.08.2019 07:00:00 22,0 19,2 6 3 ONO 1017,4 - 0,0
22.08.2019 06:00:00 21,9 19,1 3 1 ONO 1016,8 - 0,0
22.08.2019 05:00:00 22,4 19,2 3 1 S 1016,5 - 0,0
22.08.2019 04:00:00 22,1 19,1 0 0 OSO 1016,6 - 0,0
22.08.2019 03:00:00 22,1 19,1 2 1 OSO 1016,5 - 0,0
22.08.2019 02:00:00 22,5 19,1 - - - 1016,7 - 0,0
22.08.2019 01:00:00 22,4 19,2 6 3 OSO 1016,9 - 0,0
22.08.2019 00:00:00 23,1 19,3 3 1 O 1017,1 - 0,0
21.08.2019 23:00:00 - - - - - - - -
21.08.2019 22:00:00 - - - - - - - -
21.08.2019 21:00:00 - - - - - - - -
21.08.2019 20:00:00 - - - - - - - -
21.08.2019 19:00:00 - - - - - - - -
21.08.2019 18:00:00 - - - - - - - -
21.08.2019 17:00:00 30,1 20,1 11 6 NE 1014,2 - 0,0
21.08.2019 16:00:00 30,9 21,4 15 8 NE 1014,1 - 0,0
21.08.2019 15:00:00 31,4 18,4 12 7 N 1014,3 - 0,0
21.08.2019 14:00:00 30,6 18,7 10 6 ONO 1014,5 - 0,0
21.08.2019 13:00:00 29,9 19,9 10 5 N 1014,8 - 0,0
21.08.2019 12:00:00 28,7 19,1 13 7 NO 1015,2 - 0,0
21.08.2019 11:00:00 27,7 18,4 12 7 NO 1015,4 - 0,0
21.08.2019 10:00:00 27,2 17,7 11 6 ONO 1015,3 - 0,0
21.08.2019 09:00:00 25,8 15,5 8 4 ONO 1015,3 - 0,0
21.08.2019 08:00:00 23,6 14,6 3 2 OSO 1015,0 - 0,0
21.08.2019 07:00:00 22,5 16,3 4 2 O 1014,7 - 0,0
21.08.2019 06:00:00 21,6 13,0 5 3 O 1014,2 - 0,0
21.08.2019 05:00:00 23,4 11,8 0 0 O 1013,5 - 0,0
21.08.2019 04:00:00 23,7 13,6 0 0 SSE 1013,3 - 0,0
21.08.2019 03:00:00 23,7 13,6 4 2 OSO 1013,1 - 0,0
21.08.2019 02:00:00 24,0 14,7 1 0 S 1013,0 - 0,0
21.08.2019 01:00:00 24,4 16,1 0 0 SSO 1013,2 - 0,0
21.08.2019 00:00:00 24,6 16,6 0 0 SSO 1013,4 - 0,0
20.08.2019 23:00:00 - - - - - - - -
20.08.2019 22:00:00 - - - - - - - -
20.08.2019 21:00:00 - - - - - - - -
20.08.2019 20:00:00 - - - - - - - -
20.08.2019 19:00:00 - - - - - - - -
20.08.2019 18:00:00 - - - - - - - -
20.08.2019 17:00:00 32,0 12,8 15 8 E 1013,2 - 0,0
20.08.2019 16:00:00 33,0 10,9 14 8 E 1013,2 - 0,0
20.08.2019 15:00:00 33,4 12,4 10 5 ENE 1013,3 - 0,0
20.08.2019 14:00:00 32,9 10,3 8 4 NE 1013,9 - 0,0
20.08.2019 13:00:00 31,9 9,4 9 5 NNE 1014,2 - 0,0
20.08.2019 12:00:00 31,4 10,7 6 4 NE 1014,5 - 0,0

tt = Temperatura
td = dewpoint
ff = velocità del vento
dd = direzione del vento
ppp = reduced air pressure
vv = visibility
rr = precipitazioni

Stazioni seguenti

WeatherPro
AMSI
MeteoEarth